CZ-2D DEB, 43403

Orbit data source: Space-Track

CZ-2D DEB, 43403 is space debris in SSO originally from a launch on Sat, 29 Sep 2012 UTC launched from the Jiuquan Satellite Launch Center, China (JSC). Debris objects in space refer to the collection of defunct objects orbiting the Earth. Examples of debris include non-operational satellites, rocket bodies, and fragments generated from explosions, collisions, or faulty payload assembly.

Loading next visibility...
Identifier
43403, 2012-052C
Orbit
SSO
Country
Flag of CNCN / PRC
Related business
Manufacturer
SAST
Mission
Spacecraft
Bus & Motor
Unknown
Mass
Unknown
Launch date (UTC)
2012-09-29 (13 years ago)
Launch vehicle
Unknown
Launch site
Jiuquan Satellite Launch Center, China (JSC)
Object type
Payload
Rocket body
Debris
Shape & HBR
Unknown shape, 0.1 m
Radar Cross Section
Small (<0.1 m²)

Expand to show TLE details & history
Last TLE update: 4 days ago

TLE from 4 days ago
0 CZ-2D DEB
1 43403U 12052C   26032.72527512  .00001682  00000-0  42582-3 0  9999
2 43403  98.0231 131.7428 0190214 350.5620   9.2015 14.41875974636779
Epoch: 2026-02-01T17:24Z
TLE epoch observation values (Epoch: 2026-02-01T17:24:23.770Z)
Latitude
-0.00002°
Longitude
98.71297°
Altitude
621.429 km
Speed
7.619 km/s
True Right ascension
08h 46m 58s
True Declination
0° 00' 00"
Sunlit
Object was in full shadow at epoch
Visualization orbit readout
Latitude
Unknown
Longitude
Unknown
Altitude
Unknown
Speed
Unknown
Apparent Right ascension
Unknown
Apparent Declination
Unknown
Sunlit
N/A
Visualization observer readout
Local Sidereal Time
20:15:59
Azimuth
Unknown
Elevation
Unknown
Doppler factor
Unknown
Orbital elements
Apogee altitude
884.979 km
Perigee altitude
613.827 km
Semi-major axis
7,127.54 km
Eccentricity
0.01902
Inclination
98.0231°
RAAN
131.7428°
Arg. of periapsis
350.562°
True anomaly
9.55841°
Mean anomaly
9.2015°
Eccentric anomaly
9.37911°
Mean motion
3.6069 °/min
Orbital period
99.81 mins
BSTAR
0.00042582
Loading maneuver chart data...
Computing Atmospheric mass density...
Loading historical data...
Loading historical data...
Loading historical data...
Loading historical data...
Loading historical data...
Loading historical data...
Loading historical data...
Other satellites on launch #52 in the year 2012 (2012-09-29 UTC)

Documentation

Showing up to 5 results
|